Torna al catalogo

FENGYUN 1C DEB

AttivoSSO
NORAD 31515·DEBRIS·🇨🇳 China

Lanciato May 10, 1999 da Taiyuan Satellite Launch Center

Loading…

Prossimi Passaggi (prossime 24 ore)

TLE

AggiornatoSource: Space-Track

Epoca: Sep 12, 2026, 01:53 UTC

1 31515U 99025BXE 26255.07902699  .00000826  00000-0  47459-3 0  9990
2 31515  98.8896 343.9396 0054873  93.3065 267.4385 14.11300192622181

Traccia FENGYUN 1C DEB in tempo reale con AllMySat

Download on the App Store